Location: Imperia
(43.8830°N, 8.0500°E)
Time: 09:15:01
(UTC+02:00)

ISS - Visible Passes

Search period start: 08 May 2021 00:00
Search period end: 18 May 2021 00:00
Orbit: 418 x 421 km, 51.6° (Epoch: 08 May)

Date Brightness Start Highest point End Pass type
(mag) Time Alt. Az. Time Alt. Az. Time Alt. Az.
08 May -1.7 02:49:25 28° NNE 02:49:25 28° NNE 02:51:34 10° NE visible
08 May -1.3 04:23:13 10° NW 04:25:54 21° N 04:28:34 10° NE visible
09 May -0.8 02:03:27 15° NE 02:03:27 15° NE 02:04:11 10° NE visible
09 May -1.4 03:36:22 14° NW 03:38:16 22° N 03:40:59 10° NE visible
09 May -1.6 05:12:51 10° NW 05:15:49 27° NNE 05:18:47 10° ENE visible
10 May -1.6 02:50:23 24° NNW 02:50:39 24° N 02:53:29 10° NE visible
10 May -1.4 04:25:24 10° NW 04:28:14 24° N 04:31:02 10° ENE visible
11 May -1.2 02:04:21 22° NNE 02:04:21 22° NNE 02:06:03 10° NE visible
11 May -1.2 03:37:54 10° NW 03:40:37 22° N 03:43:19 10° ENE visible
11 May -2.6 05:14:42 10° NW 05:18:00 46° NNE 05:21:16 10° E visible
12 May -0.7 01:18:17 12° NE 01:18:17 12° NE 01:18:39 10° NE visible
12 May -1.2 02:51:12 15° NW 02:52:59 21° N 02:55:39 10° NE visible
12 May -2.0 04:27:19 10° NW 04:30:28 34° NNE 04:33:36 10° E visible
13 May -1.3 02:05:02 21° NNW 02:05:21 22° N 02:08:03 10° NE visible
13 May -1.6 03:39:56 10° NW 03:42:54 28° NNE 03:45:52 10° ENE visible
13 May -3.8 05:16:36 10° WNW 05:19:59 76° SW 05:23:21 10° SE visible
14 May -1.2 01:18:38 21° NNE 01:18:38 21° NNE 01:20:33 10° NE visible
14 May -1.3 02:52:29 10° NW 02:55:18 24° N 02:58:07 10° ENE visible
14 May -3.4 04:29:10 10° NW 04:32:32 69° NNE 04:35:55 10° ESE visible
14 May -1.7 21:16:24 10° SE 21:16:48 10° SE 21:17:12 10° ESE visible
14 May -3.9 22:49:42 10° SW 22:53:03 75° SSE 22:55:40 16° ENE visible
15 May -1.7 00:27:10 10° WNW 00:30:08 28° NNW 00:33:06 10° NE visible
15 May -1.2 02:04:58 10° NW 02:07:40 22° N 02:10:23 10° ENE visible
15 May -2.7 03:41:46 10° NW 03:45:03 47° NNE 03:48:20 10° E visible
15 May -2.8 05:18:48 10° WNW 05:21:45 28° SW 05:24:41 10° SSE visible
15 May -3.5 22:02:28 10° SW 22:05:40 45° SE 22:08:55 10° ENE visible
15 May -2.1 23:39:26 10° W 23:42:34 35° NNW 23:45:42 10° NE visible
16 May -1.1 01:17:22 10° NW 01:20:02 21° N 01:22:42 10° NE visible
16 May -2.1 02:54:23 10° NW 02:57:32 34° NNE 03:00:40 10° E visible
16 May -3.5 04:31:10 10° WNW 04:34:25 46° SW 04:37:40 10° SE visible
16 May -2.7 22:51:46 10° W 22:55:02 47° NNW 22:58:19 10° NE visible
17 May -1.2 00:29:42 10° WNW 00:32:24 22° N 00:35:07 10° NE visible
17 May -1.6 02:06:59 10° NW 02:09:57 28° NNE 02:12:55 10° ENE visible
17 May -3.9 03:43:39 10° WNW 03:47:02 76° SW 03:50:24 10° SE visible
17 May -1.7 05:22:40 10° WSW 05:23:18 10° SW 05:23:56 10° SW visible
17 May -3.4 22:04:11 10° WSW 22:07:32 70° NNW 22:10:55 10° NE visible
17 May -1.3 23:41:58 10° WNW 23:44:47 24° N 23:47:36 10° NE visible
